RH
57 32 48 42 45 32 40 38 33 32 30 24 22 26 31 30 35 52 29 26 38 45 50 51 53 54 56 59 60 61 61 61 61 60 60 61 60 58 60 60 61 65 66 67 67 68 69 71 77
49 25 32 34 33 36 44 34 33 28 22 20 21 22 25 32 26 28 29 29 33 42 52 52 49 49 53 56 57 58 59 58 58 58 59 60 58 56 57 57 57 61 63 64 65 65 67 68 69
39 24 27 29 34 44 45 33 31 26 22 23 24 22 24 30 25 26 27 30 32 47 48 45 47 47 48 51 53 54 55 55 55 56 58 58 54 54 54 54 54 58 60 61 62 63 64 65 66
23 22 21 22 39 33 34 32 25 24 21 21 23 28 24 23 24 26 27 31 37 41 47 47 47 47 44 47 48 50 51 51 52 54 57 56 53 53 51 52 52 56 58 59 60 59 59 60 62
23 22 25 30 35 31 28 26 25 25 24 23 23 31 31 25 25 28 31 34 43 48 48 44 50 48 45 43 45 46 48 49 50 52 56 56 54 54 52 51 51 54 55 56 57 56 58 57 58
18 19 25 37 33 29 27 24 21 22 23 24 27 28 31 25 28 32 35 41 45 48 50 51 45 48 47 47 44 44 45 47 48 51 54 54 54 55 52 52 52 52 53 54 56 57 57 57 57
34 20 29 34 31 29 25 22 22 21 21 24 22 29 30 28 29 33 37 42 45 52 54 57 57 52 55 54 45 44 44 45 47 48 51 53 53 55 54 54 54 53 51 52 54 56 57 58 58
18 20 20 32 30 33 23 20 19 16 17 15 21 29 36 28 26 34 39 46 46 51 60 59 62 61 61 56 45 43 42 43 44 45 49 52 55 56 55 55 55 54 52 51 52 54 56 57 57
15 23 31 32 29 29 23 21 17 15 20 22 23 25 25 23 23 31 40 43 49 49 60 66 63 62 62 48 48 52 52 45 48 55 51 62 66 59 53 56 54 54 53 51 54 56 55 55 58
18 29 26 23 27 26 19 19 17 18 22 24 23 21 21 22 24 24 28 34 41 44 49 65 65 65 61 42 59 57 51 58 60 63 63 68 67 56 52 54 55 56 54 59 58 57 56 55 52
19 25 21 20 20 19 21 20 15 19 24 22 24 24 23 21 20 20 24 27 32 40 46 50 62 66 67 62 58 65 65 64 63 62 66 71 64 68 68 56 57 59 62 56 53 53 54 54 56
20 18 19 20 17 15 16 14 14 17 19 18 19 21 21 21 21 22 22 27 31 40 47 48 61 65 65 65 64 64 67 58 59 68 71 73 76 70 66 61 61 61 63 57 59 63 60 60 59
20 19 16 15 15 15 12 16 17 17 16 16 16 18 20 20 22 21 24 26 29 47 50 50 62 66 60 60 66 66 65 57 61 63 73 75 71 78 67 61 65 65 62 62 66 66 65 65 64
18 16 15 13 13 13 15 17 16 18 16 17 18 20 20 20 21 26 26 29 28 43 47 56 62 64 54 62 59 61 62 54 62 62 71 69 72 71 70 65 68 63 67 68 69 69 70 69 67
16 18 15 15 16 15 14 19 18 17 16 18 20 20 20 19 22 27 25 31 34 42 44 46 57 56 52 59 63 60 59 57 57 58 64 66 74 74 75 74 72 70 70 72 70 70 71 72 66
17 20 24 17 14 15 13 21 18 17 18 20 20 21 20 19 24 25 22 25 40 43 48 51 43 52 52 62 58 59 61 62 58 57 61 71 73 72 76 74 75 69 70 74 76 77 81 76 70
22 30 23 19 14 15 16 25 19 17 17 19 20 21 19 22 24 24 24 28 42 45 46 50 52 54 56 53 60 60 59 60 60 58 58 72 70 70 77 73 70 71 74 78 83 83 82 76 76
30 25 29 23 18 15 17 19 17 17 17 18 20 21 21 23 26 23 28 29 40 46 46 48 51 53 55 57 63 62 65 62 60 60 60 68 71 70 76 75 68 74 79 81 83 86 76 80 81
22 22 26 25 16 18 19 18 17 17 17 18 22 21 23 24 26 26 28 30 44 49 46 46 49 56 56 60 69 67 71 64 59 60 65 65 71 69 75 77 66 76 83 86 87 85 85 82 73
21 26 26 20 15 21 24 23 17 16 15 16 18 21 24 26 24 26 29 36 48 52 48 44 47 53 55 60 68 69 69 64 61 62 68 65 70 71 72 70 72 77 86 89 90 86 84 77 85
21 25 26 25 22 22 26 26 22 15 14 15 17 18 22 26 26 26 28 37 56 54 50 44 47 55 58 58 65 68 67 66 64 61 70 69 66 70 76 69 75 82 85 93 80 82 88 97 94
32 22 22 22 29 38 24 49 24 17 16 14 16 19 21 26 28 25 30 50 57 58 52 42 47 50 56 62 70 70 71 75 70 70 77 73 72 75 76 68 75 83 89 88 89 87 91 97 97
29 24 25 26 36 44 36 56 42 16 17 16 17 19 23 26 27 30 36 45 50 54 55 46 51 55 59 66 69 76 75 74 73 74 77 77 80 76 69 71 78 86 91 87 90 90 94 97 98
23 28 26 32 39 84 53 60 68 33 17 16 17 19 22 29 31 34 36 40 52 58 52 46 51 57 61 65 68 71 71 72 74 74 83 83 83 74 65 68 80 93 83 86 91 91 90 97 96
29 49 91 88 88 80 45 48 59 29 23 18 20 22 24 32 32 36 36 49 55 57 52 44 50 57 62 66 68 68 68 70 73 79 84 83 81 74 68 72 82 83 80 81 85 89 89 93 96
34 51 90 89 93 80 42 56 54 27 23 24 18 25 31 36 33 39 48 54 54 54 55 54 52 58 62 67 69 69 68 76 76 79 84 87 86 79 71 74 81 75 77 81 84 93 93 87 90
33 47 54 67 79 78 71 48 33 31 30 28 28 30 38 39 40 48 53 57 58 61 59 58 58 62 64 68 71 69 71 73 76 76 81 84 86 66 77 74 76 73 78 80 86 97 96 85 83
44 45 58 84 75 95 84 57 79 52 43 33 42 41 41 37 43 51 56 57 60 61 63 61 62 64 66 71 69 67 70 72 73 75 79 80 86 81 76 75 75 73 75 80 86 96 82 83 84
68 90 94 89 98 97 98 92 83 57 51 52 51 47 45 43 48 56 57 55 58 62 63 63 63 62 67 73 71 71 72 71 73 74 76 78 82 79 81 75 73 75 75 79 88 86 80 88 85
52 91 99 87 90 97 93 84 92 73 59 49 49 47 47 46 50 55 53 53 57 60 60 63 65 63 69 71 70 70 70 70 74 74 71 77 79 78 78 80 74 75 78 82 89 83 85 90 88
Wind_Speed
7 2 2 3 4 6 4 7 5 2 6 8 12 15 19 11 6 7 3 7 14 11 9 8 13 15 16 17 18 19 20 21 22 23 24 24 23 23 23 24 24 24 24 24 24 24 24 24 23
4 5 1 3 3 4 4 7 15 11 13 17 17 10 9 9 14 7 5 8 12 10 7 5 11 13 15 18 17 18 19 21 22 24 25 24 23 23 23 24 23 23 24 23 23 23 23 24 23
2 5 3 4 4 1 6 6 10 7 5 7 6 9 6 5 10 5 6 10 10 8 6 6 13 13 13 16 17 18 19 21 22 23 25 24 23 24 23 24 24 24 24 24 23 24 23 24 24
2 4 5 5 8 10 10 8 9 8 8 11 13 9 5 7 4 7 10 11 9 7 5 7 14 14 12 15 18 17 18 20 20 22 25 25 24 24 23 23 23 25 25 25 25 24 23 24 25
2 1 2 7 7 7 9 10 10 9 9 9 5 5 6 9 11 10 10 10 8 7 7 7 14 15 15 14 18 17 18 19 20 22 24 25 25 24 25 25 24 24 24 24 24 24 25 25 25
2 3 4 5 7 7 6 11 17 15 13 12 13 9 5 8 10 8 9 8 7 6 4 4 12 16 16 16 18 17 18 19 20 21 23 25 25 25 25 25 25 24 24 24 24 25 26 27 26
2 3 2 7 12 7 6 10 11 10 7 5 14 6 7 8 9 10 9 8 8 7 5 5 6 9 15 14 18 19 18 20 19 20 21 23 24 24 25 26 25 25 23 23 23 24 26 26 27
3 4 8 4 8 4 6 9 8 9 6 7 11 7 6 6 10 9 8 8 7 6 6 6 5 6 7 6 17 19 18 18 18 18 19 20 20 25 23 26 26 26 24 22 23 24 25 26 26
4 4 2 1 8 10 8 8 6 6 15 16 9 10 10 9 9 8 5 4 4 4 6 6 6 6 7 7 9 13 14 17 15 12 16 10 5 9 15 23 27 26 26 24 22 25 26 26 23
6 5 5 2 5 10 14 13 9 8 13 10 10 9 8 7 5 9 7 6 6 5 6 7 6 6 6 7 6 7 6 5 6 5 6 5 6 9 14 18 25 24 26 25 24 25 25 18 10
6 4 7 10 12 9 9 10 6 13 8 11 12 9 7 7 5 5 5 7 8 6 6 7 6 6 6 6 4 3 3 3 4 6 4 5 6 5 4 7 8 8 18 8 12 11 8 12 10
7 10 8 5 8 11 9 9 6 5 10 16 12 9 7 7 4 6 6 6 7 7 6 6 7 7 6 4 4 5 3 4 5 4 7 4 3 4 5 6 8 9 8 12 11 7 10 10 11
8 5 7 9 9 8 9 7 10 14 13 14 12 8 8 7 7 5 7 7 7 9 5 7 8 7 5 5 4 5 4 4 5 4 5 4 4 5 7 8 7 8 9 10 10 11 10 9 10
6 9 6 9 7 6 11 6 7 7 10 9 9 7 7 7 6 6 7 5 8 8 6 8 8 6 6 5 6 4 4 5 5 4 4 6 6 7 6 7 8 10 10 10 9 11 9 9 9
10 8 7 5 2 4 10 3 6 10 9 8 8 9 7 8 6 8 6 2 9 6 7 8 7 6 7 7 6 5 5 6 5 4 6 7 7 6 5 6 7 9 10 11 10 10 10 10 9
6 6 4 5 6 3 8 6 7 10 12 9 9 7 8 7 8 8 6 6 8 8 8 8 6 7 8 7 6 5 5 5 5 5 5 7 6 7 6 7 8 11 10 9 10 10 10 9 10
4 4 6 5 9 5 4 3 8 9 10 9 9 8 8 7 8 7 9 9 7 8 8 7 7 8 8 8 6 6 7 5 5 5 5 7 9 10 6 8 10 11 9 9 9 10 10 11 11
7 5 6 9 10 7 7 9 11 9 9 10 9 9 8 9 7 8 9 8 8 8 8 8 6 8 7 6 5 4 5 5 5 5 6 8 8 9 6 7 11 9 9 10 10 11 10 9 11
2 6 6 5 8 7 9 8 16 13 9 10 9 8 9 8 9 9 8 8 9 7 9 7 8 6 6 4 2 3 3 4 5 5 7 9 7 9 7 7 10 9 9 10 11 10 12 11 14
6 1 7 4 12 5 6 10 14 18 17 13 10 8 10 8 8 8 9 7 8 8 8 8 7 7 4 3 2 3 3 4 3 4 6 9 7 9 9 11 10 11 9 11 12 12 10 11 10
6 3 6 8 5 4 1 8 7 15 12 9 9 9 9 12 10 8 8 8 9 8 8 7 7 7 5 6 3 3 3 4 5 5 4 7 9 9 9 12 10 11 10 9 14 12 14 10 10
1 6 7 11 5 3 8 5 4 15 15 15 10 9 9 10 9 9 8 9 9 7 8 6 8 6 7 7 5 6 4 3 3 4 4 6 7 8 10 13 11 12 9 12 11 11 11 10 10
3 7 6 4 3 2 4 4 8 13 11 14 11 10 10 10 12 10 11 10 9 8 7 7 8 7 7 7 6 5 6 3 3 4 6 6 5 7 13 12 12 12 9 11 12 13 12 9 7
7 9 7 5 2 3 9 8 8 5 17 15 14 12 12 11 13 13 10 11 9 8 8 8 8 6 8 7 7 8 8 6 5 5 4 4 4 7 13 12 11 11 12 12 11 12 12 11 10
5 7 4 5 4 7 3 6 10 3 6 15 18 14 12 15 15 12 10 12 9 8 8 8 8 7 7 7 8 8 7 7 6 5 4 6 6 7 11 12 13 11 12 13 12 11 11 10 10
6 7 7 7 3 4 5 5 5 6 8 6 16 13 13 13 11 9 11 11 10 9 9 7 7 7 7 7 8 7 7 4 4 5 4 4 4 7 10 11 12 14 14 13 12 9 9 10 10
5 3 6 5 4 5 4 2 5 8 8 11 14 16 14 13 13 14 13 12 10 9 8 7 7 7 6 7 7 7 6 6 5 6 4 3 5 8 9 11 12 15 13 13 13 8 11 11 11
6 4 4 3 3 3 6 4 5 7 6 7 9 12 12 11 14 12 13 12 9 8 7 7 7 7 6 8 7 6 6 6 6 5 5 5 5 5 8 11 12 14 14 14 13 9 12 13 11
3 4 7 6 2 5 1 6 2 6 8 9 9 9 12 10 12 12 12 10 10 8 7 7 7 6 7 7 7 6 6 6 6 5 6 4 5 5 6 7 11 13 13 14 13 12 13 13 14
3 6 8 5 4 2 2 9 5 3 7 9 8 9 9 12 11 13 13 11 8 8 7 7 6 6 7 7 7 6 6 6 6 6 6 6 4 4 5 7 11 11 13 14 13 14 13 14 15
Wind_Direction
319 275 146 5 40 72 11 26 81 137 58 58 73 77 85 43 29 122 189 88 94 85 76 50 30 25 24 21 18 15 14 13 12 11 10 7 6 7 6 6 4 5 3 3 0 358 357 353 346
330 319 50 275 121 64 63 79 79 80 112 106 85 87 53 79 85 88 81 85 100 98 88 71 37 26 25 21 20 18 16 14 12 12 10 6 5 7 4 5 4 4 360 359 358 357 355 352 349
253 198 79 153 66 102 121 114 115 122 88 86 106 41 63 87 63 103 106 83 78 100 104 56 36 25 24 22 21 19 17 15 14 12 10 6 5 7 4 2 2 2 359 357 356 353 352 350 347
341 3 321 73 105 7 116 132 109 87 87 66 115 72 78 50 77 114 86 83 70 70 112 55 36 19 24 22 21 19 17 18 16 15 11 7 8 4 6 360 1 359 357 355 354 351 349 348 344
147 293 253 79 61 116 112 139 127 91 77 72 81 83 87 81 97 91 86 85 90 52 32 15 26 18 14 24 19 17 18 19 17 17 13 9 9 1 5 1 359 357 356 355 353 349 351 345 345
331 121 337 106 106 89 81 87 90 90 108 114 99 116 126 131 102 106 104 109 120 120 103 56 32 17 9 10 18 16 15 20 17 17 14 12 8 359 1 1 356 354 355 353 352 357 347 346 343
69 58 167 131 127 89 112 99 110 123 120 105 145 112 139 123 144 138 140 141 144 151 124 78 59 23 355 7 17 13 14 16 16 13 12 11 9 2 360 358 352 351 353 350 351 352 350 348 347
122 94 347 147 143 119 117 79 91 95 75 122 143 145 161 163 159 143 150 156 155 148 124 95 65 37 357 2 15 11 9 15 13 10 16 13 14 2 358 356 352 349 348 349 348 351 348 347 344
1 47 58 55 146 154 129 106 76 103 86 60 42 92 130 167 168 124 142 143 139 125 121 96 68 41 21 358 10 3 357 22 7 14 26 15 12 355 3 353 350 348 345 346 356 350 346 343 341
29 78 22 19 124 138 118 107 125 99 93 90 92 101 140 175 140 143 148 150 135 112 103 104 79 51 34 3 7 352 353 358 352 8 22 18 21 0 3 354 347 342 347 7 358 349 344 345 331
20 90 71 55 101 103 103 120 113 121 125 134 132 155 159 106 130 140 145 125 130 131 86 87 82 57 39 9 1 331 355 346 340 2 15 34 14 345 4 345 334 342 1 355 344 336 336 328 323
79 39 85 92 92 102 123 137 103 114 138 135 141 140 133 152 152 93 82 104 95 94 96 81 81 61 29 15 346 332 360 354 345 338 43 37 357 345 358 349 351 360 355 342 338 329 321 317 312
70 69 60 86 101 118 98 94 106 91 106 114 126 139 147 166 136 144 100 94 96 97 94 80 77 63 24 14 340 342 359 349 344 4 45 33 355 8 10 2 359 355 343 338 330 327 320 323 318
122 92 69 59 59 81 100 108 78 113 106 111 115 141 194 128 134 92 73 83 86 115 88 91 80 71 33 357 354 344 352 338 352 20 35 16 35 31 15 355 356 345 340 331 328 327 323 322 314
101 82 62 79 125 93 99 87 125 144 121 132 154 192 184 138 142 114 100 27 109 97 83 80 88 54 29 4 352 1 356 356 2 18 13 23 55 33 10 356 352 346 335 330 331 329 323 317 315
104 113 127 221 135 133 101 264 157 155 135 156 209 215 156 164 130 123 138 97 97 87 84 81 77 52 30 23 6 1 358 354 10 19 2 41 38 29 15 0 354 342 337 334 334 333 323 319 317
185 211 176 189 174 153 143 124 195 168 147 174 214 203 183 165 140 135 101 86 98 97 89 80 69 53 45 20 16 8 356 2 6 16 7 45 35 26 21 2 350 342 340 334 331 328 322 323 316
214 230 181 174 203 156 191 245 170 176 166 192 215 194 175 174 148 130 112 92 98 94 88 81 75 63 53 28 20 360 0 356 10 9 30 46 35 24 15 1 346 344 336 331 330 328 325 316 316
305 244 162 164 187 144 201 216 180 184 180 205 216 192 174 163 164 139 133 130 114 91 81 77 78 65 61 27 13 1 359 356 6 1 47 45 35 11 15 355 347 340 335 328 326 322 325 328 332
269 309 95 95 164 151 227 247 190 178 194 195 194 190 171 137 151 145 133 145 100 104 90 74 83 78 64 57 15 29 21 350 351 345 57 41 24 10 16 351 345 341 331 329 329 329 330 331 331
227 248 181 142 164 210 334 300 214 193 183 194 196 184 166 161 163 141 137 130 116 104 92 79 91 93 74 59 34 13 9 6 354 349 38 36 20 9 11 351 348 340 333 327 336 335 334 324 331
188 110 84 124 114 240 136 270 332 164 188 196 193 178 168 164 119 139 142 107 123 116 89 80 87 82 73 56 55 54 38 13 329 340 39 26 10 10 8 353 350 338 331 337 332 332 331 327 331
140 89 99 102 159 20 249 63 270 157 188 191 190 173 156 152 147 135 115 127 111 109 99 74 90 77 69 63 66 59 39 352 324 355 39 12 355 9 4 355 346 339 337 337 334 336 348 340 335
123 85 58 31 78 2 223 141 289 188 189 185 181 169 158 134 115 115 120 118 108 92 74 71 88 71 66 64 58 58 42 4 7 9 27 356 349 17 6 355 347 341 346 345 340 340 350 354 349
109 93 28 5 8 224 242 160 239 326 87 186 172 164 154 133 128 133 131 110 104 90 73 72 77 66 68 64 59 53 33 20 13 22 33 10 3 21 2 356 349 352 351 348 346 349 350 352 351
180 131 146 178 200 282 198 233 253 82 57 69 155 142 126 127 129 120 114 112 109 98 82 70 77 74 69 65 61 48 25 22 13 33 50 15 10 26 353 358 352 359 355 351 349 342 348 354 351
192 169 183 122 19 61 247 141 29 70 45 64 112 119 124 124 119 118 113 113 109 102 102 92 87 81 74 72 68 42 27 23 21 27 56 34 29 19 0 358 3 1 357 352 349 348 355 357 354
83 19 72 8 110 264 287 234 224 136 145 109 112 126 129 126 119 117 115 118 115 114 112 93 95 99 90 78 67 48 29 23 21 23 42 52 55 13 7 6 6 6 357 354 353 357 0 358 358
23 29 49 99 64 161 270 266 257 186 166 147 136 138 134 129 128 123 123 120 125 122 115 105 98 94 81 83 70 47 27 22 19 22 15 56 72 26 6 7 17 12 1 358 355 2 3 358 1
144 156 134 116 219 233 136 272 247 318 155 139 129 134 131 132 130 128 130 133 124 126 122 107 99 93 96 91 73 48 37 24 20 19 11 21 68 36 15 6 19 17 3 358 360 6 1 6 4